[[{"header":{"parameterUnit":"m.s-1","parameterCategory":1,"la1":30.2991,"la2":30.254,"lo1":-89.0895,"lo2":-89.0444,"dy":0.0017,"dx":0.0017,"nx":28,"ny":28,"refTime":"2023-08-01T03:00:00:Z","depth":0,"parameterNumber":2,"parameterNumberName":"U-component_of_WINDS"},"data":[0,0,0,0,0,0,0,0,0,0,0,0,0,0,0,0,0,0,0,0,0,0,0,0,0,0,0,0,0,0,0,0,0,0,0,0,0,0,0,0,0,0,0,0,0,0,0,0,0,0,0,0,0,0,0,0,0,0,3.3976,3.3977,0,3.4033,3.4034,3.4035,3.3922,3.3919,3.3915,3.3911,3.3972,3.3977,3.3981,0,0,0,0,0,0,0,0,0,0,0,0,0,3.3774,3.3778,3.3976,3.3977,3.3978,3.4033,3.4034,3.4035,3.3923,3.3918,3.3914,3.391,3.397,3.3976,3.3982,0,0,0,0,0,0,0,0,0,0,0,0,0,3.385,3.378,3.3976,3.3929,3.3925,3.4033,3.4034,3.4035,3.3924,3.3918,3.3913,3.3908,3.3968,3.3975,3.3983,3.414,0,0,3.4006,3.4009,0,0,0,0,0,0,0,0,3.3845,3.3857,3.3935,3.3932,3.3928,3.3965,3.3984,3.407,3.3925,3.3924,3.3911,3.3905,3.3974,3.3981,3.4004,3.4143,3.4146,3.4007,3.4011,3.4014,3.4017,0,0,0,0,0,0,0,3.384,3.3854,3.3999,3.3936,3.3932,3.3905,3.391,3.4,3.398,3.3924,3.3916,3.3924,3.3971,3.3997,3.4004,3.4147,3.4006,3.4013,3.4018,3.4021,3.442,3.4426,0,0,0,0,0,0,3.3841,3.385,3.3997,3.4001,3.3872,3.3914,3.3919,3.3959,3.3978,3.3976,3.3929,3.3919,3.3986,3.3995,3.4006,3.4192,3.4014,3.4021,3.4026,3.4414,3.4421,3.4428,0,0,0,0,0,0,3.3837,3.3855,3.3995,3.3923,3.3939,3.3923,3.3969,3.3963,3.3988,3.3982,3.3978,3.3959,3.3982,3.3995,3.4108,3.4193,3.4025,3.4032,3.4407,3.4416,3.4425,3.4567,0,0,0,0,0,0,3.3832,3.3854,3.3913,3.3926,3.3943,3.4096,3.3974,3.3968,3.4001,3.3989,3.4009,3.4007,3.3979,3.4097,3.4116,3.42,3.4038,3.4399,3.4411,3.4422,3.4554,3.4579,3.4601,0,0,0,0,0,3.3825,3.3951,3.3917,3.3935,3.4017,3.41,3.4111,3.4076,3.4009,3.4068,3.4065,3.4006,3.4181,3.411,3.4129,3.4218,3.4394,3.4408,3.4421,3.4544,3.4574,3.46,0,0,0,0,0,0,3.3949,3.3951,3.3913,3.4047,3.4075,3.4081,3.4155,3.4109,3.4156,3.4143,3.4098,3.4103,3.4226,3.4233,3.4154,3.4372,3.4276,3.4294,3.4363,3.4392,3.4415,3.441,3.4044,0,0,0,0,0,3.3992,3.4059,3.4058,3.4176,3.4192,3.4172,3.4207,3.4178,3.4204,3.4215,3.422,3.4249,3.431,3.4351,3.4407,3.4555,3.4558,3.4626,3.4649,3.4668,3.4685,3.4764,3.4795,3.4473,3.4473,3.4472,0,0,3.4081,3.4091,3.4136,3.4201,3.4219,3.4291,3.4182,3.4262,3.4315,3.4228,3.4334,3.4339,3.4368,3.45,3.4558,3.4509,3.4774,3.4686,3.4701,3.4707,3.4782,3.4812,3.4839,3.4482,3.448,3.4479,0,0,3.4281,3.4294,3.4395,3.4415,3.4443,3.4429,3.4454,3.4468,3.4468,3.4574,3.4511,3.4574,3.468,3.4704,3.473,3.4941,3.489,3.4961,3.5083,3.5161,3.5187,3.5209,3.5285,3.5313,3.4977,3.4977,3.4978,0,3.4388,3.4493,3.4453,3.4538,3.4569,3.4493,3.4595,3.4617,3.4663,3.4687,3.4632,3.4765,3.4779,3.4915,3.4967,3.4991,3.5018,3.4958,3.5186,3.5208,3.5228,3.53,3.5329,3.4986,3.4985,3.4984,3.4983,0,3.4624,3.4698,3.4776,3.4822,3.4862,3.4955,3.493,3.4976,3.4944,3.4937,3.5047,3.5062,3.512,3.515,3.512,3.5283,3.5253,3.5193,3.5095,3.5268,3.5335,3.5362,3.4998,3.4995,3.4992,3.499,0,0,3.4902,3.4926,3.4955,3.4975,3.5002,3.5059,3.5149,3.5206,3.5247,3.5281,3.5357,3.545,3.5395,3.5425,3.5397,3.5466,3.5633,3.5397,3.5397,3.5441,3.5816,3.5861,3.5893,3.5599,3.5605,3.5609,3.5813,0,3.51,3.5255,3.5223,3.5376,3.5444,3.5374,3.5454,3.5479,3.5475,3.5533,3.5529,3.5596,3.5518,3.5536,3.5601,3.5599,3.5708,3.5584,3.567,3.5674,3.5665,3.5928,3.5975,3.6167,3.5839,3.5844,3.5847,0,3.5352,3.5396,3.5556,3.5572,3.56,3.5672,3.5722,3.5778,3.5807,3.5799,3.5833,3.5792,3.5884,3.5786,3.5912,3.5828,3.5862,3.5867,3.5873,3.588,3.5771,3.5942,3.6228,3.6257,3.5887,3.5884,3.5881,0,3.5539,3.5639,3.5747,3.5767,3.5789,3.5842,3.5854,3.5876,3.5913,3.5958,3.5981,3.6036,3.6066,3.611,3.6086,3.6017,3.6217,3.6116,3.6214,3.6215,3.6259,3.6256,3.6555,3.6281,3.628,3.628,3.6279,0,3.5764,3.5865,3.5832,3.5899,3.601,3.5973,3.6084,3.6088,3.6109,3.6177,3.612,3.6185,3.6148,3.6211,3.6192,3.63,3.6314,3.6311,3.6305,3.6316,3.6317,3.6338,3.6324,3.6287,3.6286,3.6284,3.6283,0,3.5992,3.5974,3.6088,3.61,3.6106,3.6188,3.6198,3.6261,3.6253,3.634,3.6358,3.6346,3.6416,3.6396,3.6473,3.646,3.6597,3.6574,3.6588,3.6582,3.6681,3.6672,3.7003,3.7045,3.6744,3.6747,3.6749,0,3.6137,3.6212,3.6233,3.6274,3.629,3.6357,3.6394,3.6361,3.6402,3.6441,3.65,3.6566,3.6616,3.6732,3.6731,3.679,3.6768,3.688,3.6776,3.6786,3.677,3.6766,3.6774,3.69,3.6904,3.6907,3.6909,0,3.6396,3.6383,3.6439,3.6493,3.6539,3.658,3.6615,3.6652,3.6622,3.6672,3.6743,3.6782,3.6861,3.6927,3.6981,3.6994,3.6948,3.6942,3.6967,3.698,3.6984,3.6984,3.6644,3.6934,3.6931,3.693,3.6928,3.6927,3.6586,3.6651,3.6676,3.6741,3.6764,3.6799,3.6859,3.6859,3.6918,3.6979,3.6956,3.7038,3.7066,3.7134,3.7154,3.7218,3.7176,3.7213,3.7222,3.7232,3.7245,3.6975,3.7228,3.7227,3.7227,3.7226,3.7225,0,3.6843,3.6856,3.6915,3.6967,3.7019,3.697,3.7007,3.7054,3.7127,3.7156,3.7207,3.729,3.7355,3.7359,3.742,3.7471,3.7451,3.7488,3.7484,3.7488,3.7279,3.7251,3.7503,3.7503,3.7503,3.7503,3.7503,3.7503,3.6982,3.7089,3.708,3.7199,3.7211,3.7291,3.7317,3.7349,3.7373,3.7468,3.7521,3.7523,3.7544,3.7606,3.7663,3.7663,3.7688,3.7733,3.7725,3.753,3.7502,3.7476,3.7449,3.7739,3.7739,3.7928,3.793,3.7931]},{"header":{"parameterUnit":"m.s-1","parameterCategory":1,"la1":30.2991,"la2":30.254,"lo1":-89.0895,"lo2":-89.0444,"dy":0.0017,"dx":0.0017,"nx":28,"ny":28,"refTime":"2023-08-01T03:00:00:Z","depth":0,"parameterNumber":3,"parameterNumberName":"V-component_of_WINDS"},"data":[0,0,0,0,0,0,0,0,0,0,0,0,0,0,0,0,0,0,0,0,0,0,0,0,0,0,0,0,0,0,0,0,0,0,0,0,0,0,0,0,0,0,0,0,0,0,0,0,0,0,0,0,0,0,0,0,0,0,-1.5549,-1.555,0,-1.5615,-1.5616,-1.5617,-1.5629,-1.5628,-1.5628,-1.5627,-1.5695,-1.5697,-1.5699,0,0,0,0,0,0,0,0,0,0,0,0,0,-1.5434,-1.5436,-1.5549,-1.555,-1.5551,-1.5615,-1.5616,-1.5617,-1.5629,-1.5628,-1.5628,-1.5627,-1.5694,-1.5697,-1.57,0,0,0,0,0,0,0,0,0,0,0,0,0,-1.549,-1.5436,-1.5549,-1.5564,-1.5566,-1.5615,-1.5616,-1.5617,-1.5629,-1.5628,-1.5627,-1.5627,-1.5693,-1.5697,-1.57,-1.5738,0,0,-1.5711,-1.5712,0,0,0,0,0,0,0,0,-1.5487,-1.5494,-1.5561,-1.5563,-1.5566,-1.5613,-1.56,-1.5658,-1.5629,-1.5605,-1.5627,-1.5626,-1.5668,-1.5674,-1.5688,-1.5741,-1.5744,-1.5711,-1.5713,-1.5715,-1.5716,0,0,0,0,0,0,0,-1.5483,-1.5492,-1.5575,-1.5562,-1.5565,-1.5568,-1.5575,-1.5611,-1.5641,-1.5607,-1.5608,-1.5616,-1.5669,-1.5685,-1.569,-1.5745,-1.5711,-1.5714,-1.5716,-1.5717,-1.5833,-1.5834,0,0,0,0,0,0,-1.5476,-1.5488,-1.5573,-1.5577,-1.5524,-1.5571,-1.5579,-1.5599,-1.564,-1.5646,-1.5617,-1.5616,-1.5679,-1.5686,-1.5692,-1.5739,-1.5715,-1.5718,-1.572,-1.5832,-1.5833,-1.5834,0,0,0,0,0,0,-1.5474,-1.5484,-1.5571,-1.5533,-1.5544,-1.5574,-1.5596,-1.56,-1.5616,-1.5647,-1.5653,-1.5627,-1.5679,-1.5687,-1.5727,-1.5742,-1.5719,-1.5722,-1.5831,-1.5832,-1.5834,-1.5834,0,0,0,0,0,0,-1.547,-1.5483,-1.5497,-1.5533,-1.5546,-1.5604,-1.5597,-1.5602,-1.5622,-1.5622,-1.5658,-1.5663,-1.5679,-1.5721,-1.573,-1.5746,-1.5725,-1.583,-1.5831,-1.5833,-1.5832,-1.5835,-1.5837,0,0,0,0,0,-1.5466,-1.5494,-1.5498,-1.5508,-1.5565,-1.5604,-1.5612,-1.5629,-1.5623,-1.5638,-1.5658,-1.5662,-1.5739,-1.5725,-1.5735,-1.5752,-1.5829,-1.5831,-1.5833,-1.5831,-1.5834,-1.5837,0,0,0,0,0,0,-1.5459,-1.5499,-1.5504,-1.5544,-1.5571,-1.5606,-1.5626,-1.5632,-1.566,-1.5659,-1.5679,-1.5688,-1.5726,-1.5743,-1.5727,-1.5792,-1.5783,-1.5788,-1.5779,-1.5782,-1.5784,-1.5779,-1.5728,0,0,0,0,0,-1.5462,-1.5491,-1.5525,-1.5557,-1.557,-1.5596,-1.5614,-1.5625,-1.5653,-1.5664,-1.5687,-1.5715,-1.5745,-1.5765,-1.5794,-1.5835,-1.5844,-1.5852,-1.5855,-1.5856,-1.586,-1.5883,-1.5888,-1.5842,-1.5842,-1.5841,0,0,-1.5469,-1.5495,-1.5511,-1.5556,-1.5578,-1.5608,-1.5605,-1.5636,-1.5658,-1.5669,-1.5707,-1.5726,-1.5757,-1.5798,-1.5817,-1.5814,-1.5874,-1.5859,-1.586,-1.5863,-1.5886,-1.589,-1.5894,-1.5843,-1.5843,-1.5843,0,0,-1.5496,-1.5518,-1.5548,-1.557,-1.5604,-1.562,-1.5628,-1.5663,-1.5675,-1.5714,-1.5723,-1.575,-1.5801,-1.5824,-1.5842,-1.5879,-1.5884,-1.5888,-1.59,-1.5923,-1.5926,-1.593,-1.5943,-1.5947,-1.5892,-1.5892,-1.5892,0,-1.55,-1.5545,-1.5563,-1.5594,-1.5613,-1.5625,-1.5655,-1.5676,-1.5717,-1.5731,-1.5727,-1.5792,-1.5814,-1.586,-1.587,-1.5884,-1.5893,-1.5884,-1.5924,-1.5928,-1.5931,-1.5944,-1.5949,-1.5892,-1.5892,-1.5892,-1.5892,0,-1.5548,-1.5579,-1.5599,-1.5639,-1.5661,-1.5691,-1.5714,-1.5735,-1.5744,-1.5761,-1.5801,-1.5829,-1.5864,-1.5876,-1.5885,-1.5924,-1.5921,-1.592,-1.5912,-1.5936,-1.5948,-1.5953,-1.5892,-1.5892,-1.5892,-1.5892,0,0,-1.5572,-1.5622,-1.5629,-1.5647,-1.5685,-1.5709,-1.5741,-1.5775,-1.5792,-1.5821,-1.5848,-1.5892,-1.5892,-1.5913,-1.5925,-1.5945,-1.5972,-1.5942,-1.5943,-1.5947,-1.6017,-1.6016,-1.6022,-1.5976,-1.5977,-1.5978,-1.6014,0,-1.5603,-1.5659,-1.5677,-1.5723,-1.5752,-1.5764,-1.5792,-1.5818,-1.5835,-1.5863,-1.5882,-1.5913,-1.5911,-1.5923,-1.5944,-1.5965,-1.5987,-1.5962,-1.6002,-1.6003,-1.5993,-1.6028,-1.6028,-1.606,-1.6019,-1.602,-1.602,0,-1.5647,-1.5676,-1.5726,-1.5761,-1.5774,-1.5798,-1.5831,-1.5857,-1.5888,-1.5899,-1.5923,-1.5934,-1.5967,-1.5958,-1.6005,-1.5988,-1.6005,-1.6018,-1.602,-1.6024,-1.6012,-1.6033,-1.6071,-1.6076,-1.6028,-1.6028,-1.6027,0,-1.5659,-1.5711,-1.5747,-1.5763,-1.5804,-1.5821,-1.5839,-1.5869,-1.5889,-1.5919,-1.5932,-1.5966,-1.5984,-1.601,-1.6029,-1.6021,-1.6075,-1.6067,-1.6085,-1.6084,-1.6095,-1.6094,-1.6136,-1.6107,-1.6107,-1.6107,-1.6107,0,-1.5692,-1.5722,-1.5753,-1.5776,-1.581,-1.583,-1.5863,-1.5882,-1.5909,-1.5935,-1.5948,-1.5973,-1.5998,-1.6026,-1.6042,-1.6078,-1.6086,-1.6097,-1.61,-1.6095,-1.6094,-1.6106,-1.6104,-1.6108,-1.6108,-1.6107,-1.6107,0,-1.571,-1.5733,-1.5773,-1.581,-1.582,-1.5843,-1.5875,-1.5897,-1.5915,-1.5949,-1.5958,-1.5987,-1.6021,-1.6043,-1.6086,-1.6097,-1.6137,-1.614,-1.6126,-1.6128,-1.6145,-1.6143,-1.6196,-1.6205,-1.617,-1.617,-1.617,0,-1.573,-1.5753,-1.5792,-1.5811,-1.5829,-1.5859,-1.588,-1.5901,-1.5922,-1.5959,-1.5977,-1.6012,-1.6041,-1.6095,-1.612,-1.6153,-1.6157,-1.6174,-1.6163,-1.6157,-1.6158,-1.6156,-1.6158,-1.6175,-1.6176,-1.6176,-1.6176,0,-1.5761,-1.5772,-1.5801,-1.5834,-1.5859,-1.5886,-1.5913,-1.5928,-1.5954,-1.5978,-1.6012,-1.6035,-1.608,-1.6114,-1.615,-1.6169,-1.6177,-1.618,-1.6186,-1.618,-1.6171,-1.6176,-1.6131,-1.6178,-1.6178,-1.6178,-1.6178,-1.6178,-1.5781,-1.5802,-1.5833,-1.5866,-1.5889,-1.5914,-1.5937,-1.5959,-1.5988,-1.6026,-1.6037,-1.6073,-1.6104,-1.6154,-1.6173,-1.6203,-1.6201,-1.6209,-1.6212,-1.6213,-1.6213,-1.6167,-1.6209,-1.6209,-1.6209,-1.6209,-1.6209,0,-1.5813,-1.5834,-1.5864,-1.5902,-1.5927,-1.5933,-1.5964,-1.5985,-1.6017,-1.6045,-1.6073,-1.6114,-1.6148,-1.6176,-1.6211,-1.6229,-1.6233,-1.6237,-1.6236,-1.624,-1.6213,-1.6204,-1.6233,-1.6233,-1.6233,-1.6233,-1.6233,-1.6233,-1.5833,-1.587,-1.5884,-1.5932,-1.5953,-1.5988,-1.6006,-1.6029,-1.6052,-1.6097,-1.6125,-1.6143,-1.6171,-1.6209,-1.624,-1.6248,-1.626,-1.6263,-1.6271,-1.6245,-1.6242,-1.6239,-1.6231,-1.6265,-1.6265,-1.6296,-1.6296,-1.6296]}]]